Location: Coche
(10.4506°N, 66.9257°W)
Time: 14:36:09
(UTC+00:00)

YAOGAN 1 - Visible Passes

Search period start: 03 July 2022 00:00
Search period end: 13 July 2022 00:00
Orbit: 617 x 619 km, 97.9° (Epoch: 03 July)

Date Brightness Start Highest point End Pass type
(mag) Time Alt. Az. Time Alt. Az. Time Alt. Az.
04 Jul 3.6 00:00:47 10° S 00:04:54 45° W 00:09:01 10° NNW visible
05 Jul 4.6 00:18:03 10° SSW 00:21:40 26° W 00:25:16 10° NW visible
06 Jul 5.3 00:35:52 10° SW 00:38:25 15° W 00:40:58 10° WNW visible
06 Jul 3.2 23:15:18 10° SE 23:19:16 37° ENE 23:23:15 10° N visible
07 Jul 2.5 23:31:43 10° SSE 23:36:00 67° ENE 23:40:15 10° N visible
08 Jul 2.8 23:48:26 10° S 23:52:43 69° WSW 23:57:00 10° NNW visible
10 Jul 3.9 00:05:27 10° S 00:09:27 38° W 00:13:29 10° NNW visible
11 Jul 4.8 00:22:50 10° SSW 00:26:13 23° W 00:29:36 10° NW visible
12 Jul 5.4 00:40:55 10° SW 00:42:59 13° W 00:45:03 10° WNW visible
12 Jul 3.0 23:19:43 10° SSE 23:23:49 44° ENE 23:27:54 10° N visible
